This is the latest recevied weather packets stored in our database for station/object EA2RCU-15. If no packets are shown the sender has not sent any weather packets the latest 10 day(s).
| Time | Temp. | Humidity | Pressure | Rain* | Wind** | Luminosity | Snow |
|---|---|---|---|---|---|---|---|
| 1778062505 | 16.11° C | 44% | 997 hPa | 0 mm | - | - | - |
| 1778062206 | 16.67° C | 44% | 997 hPa | 0 mm | - | - | - |
| 1778061905 | 16.67° C | 46% | 997 hPa | 0 mm | - | - | - |
| 1778061605 | 16.11° C | 49% | 997 hPa | 0 mm | - | - | - |
| 1778061304 | 16.11° C | 50% | 997 hPa | 0 mm | - | - | - |
| 1778061005 | 15.56° C | 51% | 997 hPa | 0 mm | - | - | - |
| 1778060705 | 15.56° C | 50% | 997 hPa | 0 mm | - | - | - |
| 1778060405 | 15.56° C | 49% | 997 hPa | 0 mm | - | - | - |
| 1778060104 | 15.56° C | 51% | 997 hPa | 0 mm | - | - | - |
| 1778059805 | 15.56° C | 51% | 997 hPa | 0 mm | - | - | - |
| 1778059505 | 15.56° C | 50% | 997 hPa | 0 mm | - | - | - |
| 1778059205 | 15.56° C | 49% | 997 hPa | 0 mm | - | - | - |
| 1778058905 | 16.11° C | 49% | 997 hPa | 0 mm | - | - | - |
| 1778058605 | 16.11° C | 48% | 997 hPa | 0 mm | - | - | - |
| 1778058305 | 16.11° C | 47% | 997 hPa | 0 mm | - | - | - |
| 1778058005 | 16.11° C | 47% | 997 hPa | 0 mm | - | - | - |
| 1778057705 | 16.67° C | 47% | 997 hPa | 0 mm | - | - | - |
| 1778057405 | 16.67° C | 50% | 997 hPa | 0 mm | - | - | - |
| 1778057105 | 16.67° C | 52% | 997 hPa | 0 mm | - | - | - |
| 1778056805 | 16.11° C | 58% | 997 hPa | 0 mm | - | - | - |
| 1778056505 | 16.11° C | 62% | 997 hPa | 0 mm | - | - | - |
| 1778056205 | 16.11° C | 64% | 997 hPa | 0 mm | - | - | - |
| 1778055905 | 15° C | 65% | 997 hPa | 0 mm | - | - | - |
| 1778055605 | 14.44° C | 67% | 997 hPa | 0 mm | - | - | - |
| 1778055305 | 14.44° C | 69% | 997 hPa | 0 mm | - | - | - |
* Rain latest hour (hover to see other rain measurements)
** Current wind speed in m/s (hover to see current wind gust speed)